Regional Weather Roundup
Issued by NWS

Home | Current Version | Previous Version | Graphics & Text | Print | Product List | Glossary On
Versions: 1 2 3 4 5 6 7 8 9 10 11 12 13 14 15 16 17 18 19 20 21 22 23 24 25 26 27 28 29 30 31 32 33 34 35 36 37 38 39 40 41 42 43 44 45 46 47 48 49 50
000
ASUS43 KDMX 250901
RWRIA

WEATHER ROUNDUP FOR IOWA
NATIONAL WEATHER SERVICE DES MOINES IA
300 AM CST SAT FEB 25 2017

NOTE: "FAIR" INDICATES FEW OR NO CLOUDS BELOW 12,000 FEET WITH NO
SIGNIFICANT WEATHER AND/OR OBSTRUCTIONS TO VISIBILITY.

* - THESE STATIONS ARE NOT NWS STATIONS...THUS NOT UNDER NWS
QUALITY CONTROL.  THEY ALSO DO NOT REPORT WEATHER SUCH
AS PRECIPITATION OR FOG.

IAZ001>003-012>014-020>022-031>034-043>046-251000-
   NORTHWEST IOWA

CITY           SKY/WX    TMP DP  RH WIND       PRES   REMARKS
CARROLL *      CLEAR     19  16  86 NW15G22   30.02R WCI   5
CHEROKEE *     CLEAR     16  13  86 NW12      30.04R WCI   3
DENISON *      CLEAR     18  12  79 NW13      30.02S WCI   4
LE MARS *      CLEAR     18  12  79 NW14      30.07F WCI   4
SHELDON *      CLEAR     16  16 100 NW16      30.01S WCI   0
SIOUX CITY     CLEAR     21  14  74 NW15      30.08F WCI   8
SPENCER        CLEAR     15   9  76 NW14      30.00S WCI   0
STORM LAKE *   CLEAR     14  10  85 NW17      30.00S FOG     WCI  -3
$$

IAZ055>058-069>071-079>083-090>094-251000-
   SOUTHWEST IOWA

CITY           SKY/WX    TMP DP  RH WIND       PRES   REMARKS
ATLANTIC *     CLOUDY    19  14  79 NW15G21   30.04S WCI   5
AUDUBON *      CLEAR     18  12  79 NW10G17   30.01F WCI   6
CLARINDA *     CLEAR     21  16  79 NW9G16    30.10R WCI  11
COUNCIL BLFS * CLEAR     19  16  86 NW10G16   30.07S WCI   8
CRESTON *      FLURRIES  19  12  73 NW17      30.01S WCI   4
HARLAN  *      CLEAR     18  14  86 NW14      30.07S WCI   4
LAMONI         CLEAR     20  13  74 NW15G25   29.99S WCI   6
RED OAK *      PTCLDY    18  14  86 NW10      30.06F WCI   6
SHENANDOAH *   CLEAR     21  16  79 NW9       30.10R WCI  11
$$

IAZ047>049-059>061-072>074-084-251000-
   CENTRAL IOWA

CITY           SKY/WX    TMP DP  RH WIND       PRES   REMARKS
AMES           CLEAR     19  15  84 NW21      29.97R WCI   3
ANKENY *       MOCLDY    19  14  79 MISG      29.99R
BOONE *        PTCLDY    18  12  79 NW20      29.95R WCI   1
CHARITON *     PTCLDY    19  14  79 NW17G24   29.97R WCI   4
DES MOINES     MOCLDY    20  13  74 NW20      29.98R WCI   4
GRINNELL*      CLEAR     18  13  83 NW16      29.93R WCI   3
KNOXVILLE *    MOCLDY    19  12  73 NW13      29.95R WCI   7
MARSHALLTOWN   CLEAR     17  12  80 NW18      29.91R WCI   1
NEWTON *       PTCLDY    18  14  86 NW17G25   29.93R WCI   2
PELLA *        CLEAR     20  14  77 NW16      29.96R WCI   6
PERRY *          N/A     19  14  82 NW13      30.01R WCI   5
$$

IAZ004>006-015-016-023>025-035-036-251000-
   NORTH CENTRAL IOWA

CITY           SKY/WX    TMP DP  RH WIND       PRES   REMARKS
ALGONA *       HAZE      14  10  85 NW16G23   29.95R VSB 1   WCI  -2
CLARION *      CLEAR     14  12  92 NW21      29.94S WCI  -4
ESTHERVILLE    CLEAR     14   9  80 NW22      29.96S WCI  -4
FORT DODGE *   CLEAR     16   9  73 NW7       29.97S WCI   6
MASON CITY     PTCLDY    15  11  83 NW22      29.91R WCI  -3
FOREST CITY *    N/A     14  12  92 NW13G22   29.91S WCI   0
WEBSTER CITY * CLEAR     16  10  79 NW22G28   29.94R WCI  -2
IOWA FALLS *     N/A     18  14  85 NW24G31   29.92S FOG     WCI   0
$$

IAZ007>011-017>019-026>030-037>042-050>054-066-251000-
   NORTHEAST IOWA

CITY           SKY/WX    TMP DP  RH WIND       PRES   REMARKS
CEDAR RAPIDS   MOCLDY    20  14  77 NW20      29.83R WCI   4
CHARLES CITY * CLEAR     18   9  68 NW18G25   29.86S WCI   2
DECORAH *      CLOUDY    18  10  73 NW20G28   29.79S WCI   1
DUBUQUE        LGT SNOW  18  15  88 NW16      29.75S FOG     WCI   3
MONTICELLO *   LGT SNOW  21  16  79 NW14G25   29.80R WCI   8
OELWEIN *      CLOUDY    18  14  86 NW21      29.83S WCI   1
WATERLOO       PTCLDY    18   9  68 NW17      29.87R WCI   3
$$

IAZ064-065-067-068-078-251000-
   EAST CENTRAL IOWA

CITY           SKY/WX    TMP DP  RH WIND       PRES   REMARKS
DAVENPORT      CLOUDY    22  17  81 NW24G30   29.78R HAZE    WCI   5
IOWA CITY      CLOUDY    24  14  65 NW15G23   29.87R WCI  11
MUSCATINE *    CLOUDY    23  18  80 NW14G22   29.85R WCI  11
QUAD CITIES    FLURRIES  24  17  74 NW21G30   29.79R WCI   9
$$

IAZ062-063-075>077-085>089-095>099-251000-
   SOUTHEAST IOWA

CITY           SKY/WX    TMP DP  RH WIND       PRES   REMARKS
BURLINGTON     FLURRIES  24  18  77 NW15G22   29.85R WCI  11
FAIRFIELD *    MOCLDY    21  14  73 NW18      29.89R WCI   6
KEOKUK *       CLOUDY    27  18  69 NW20G30   29.88R WCI  13
CENTERVILLE *    N/A     19  16  86 W13       29.96R WCI   7
OTTUMWA        CLEAR     20  12  71 NW17      29.92R WCI   5
WASHINGTON *   CLOUDY    23  18  80 NW21G31   29.88R WCI   8
$$

ABBREVIATIONS USED IN REMARKS
   TC - TEMPERATURES IN CELSIUS
  WCI - WIND CHILL INDEX
   HX - HEAT INDEX
  VSB - VISIBILITY
$$




USA.gov is the U.S. government's official web portal to all federal, state and local government web resources and services.